Rochester, MN
on Sunday, November 4, 2012

Sunday
Previous Day Next Day
Daily Summary
 ActualAverageRecord
Temperature
Mean Temperature °F 40°F  
Max Temperature 49°F 49°F 74°F (2008)
Min Temperature 35°F 32°F -2°F (1991)
Degree Days
Heating Degree Days 23 25  
Month to date heating degree days 101 96  
Since 1 July heating degree days 766 832  
Cooling Degree Days 0 0  
Month to date cooling degree days 0 0  
Year to date cooling degree days 888 585  
Moisture
Dew Point 34°F   
Average Humidity 73    
Maximum Humidity 85    
Minimum Humidity 61    
Precipitation
Precipitation T in 0.07 in 0.63 in (1988)
Month to date precipitation 0.01 0.27  
Year to date precipitation 22.56 30.15  
Snow
Snow 0.00 in 0.10 in 0.90 in (1959)
Month to date snowfall 0.0 0.4  
Since 1 July snowfall 0.0 1.2  
Snow Depth 0.00 in   
Wind
Wind Speed 6 mph   
Max Wind Speed 13 mph   
Max Gust Speed 15 mph   
Visibility 7 miles   
Events Rain   

Key: T is trace of precipitation, MM is missing value
Source: NWS Daily Summary
Time(CST)TemperatureDew PointHumidity Pressure Visibility Wind DirectionWind SpeedGust SpeedPrecipitationEvents Conditions
12:54 AM 39.9°F 32.0°F 73% 30.25 in 8.0 miles West 4.6 mph - 0.01 in Rain Light Rain
1:54 AM 39.0°F 33.1°F 79% 30.25 in 9.0 miles Calm Calm - 0.00 in Rain Light Rain
1:54 AM 39.0°F 33.1°F 79% 30.24 in 9.0 miles Calm Calm - 0.00 in   Overcast
2:54 AM 37.9°F 33.1°F 83% 30.24 in 6.0 miles ESE 3.5 mph - 0.00 in   Haze
3:54 AM 37.0°F 33.1°F 86% 30.24 in 4.0 miles SSE 3.5 mph - N/A   Overcast
4:54 AM 37.0°F 32.0°F 82% 30.25 in 5.0 miles ESE 3.5 mph - N/A   Haze
5:03 AM 37.4°F 32.0°F 81% 30.21 in 5.0 miles Calm Calm - N/A   Haze
5:54 AM 37.0°F 32.0°F 82% 30.25 in 5.0 miles SE 3.5 mph - N/A   Haze
6:18 AM 35.6°F 32.0°F 87% 30.20 in 5.0 miles SSE 4.6 mph - N/A   Overcast
6:54 AM 35.1°F 30.9°F 85% 30.24 in 4.0 miles SSE 5.8 mph - N/A   Mostly Cloudy
7:08 AM 35.6°F 30.2°F 81% 30.20 in 2.5 miles SSE 4.6 mph - N/A   Partly Cloudy
7:43 AM 35.6°F 32.0°F 87% 30.21 in 3.0 miles SSE 5.8 mph - N/A   Clear
7:54 AM 37.0°F 32.0°F 82% 30.25 in 4.0 miles South 3.5 mph - N/A   Haze
8:54 AM 41.0°F 34.0°F 76% 30.24 in 6.0 miles SSE 5.8 mph - N/A   Haze
9:54 AM 45.0°F 36.0°F 71% 30.23 in 8.0 miles South 6.9 mph - N/A   Mostly Cloudy
10:54 AM 45.0°F 35.1°F 68% 30.22 in 7.0 miles Calm Calm - N/A   Mostly Cloudy
11:26 AM 44.6°F 35.6°F 71% 30.19 in 8.0 miles Calm Calm - N/A   Overcast
11:45 AM 46.4°F 35.6°F 66% 30.19 in 8.0 miles Variable 4.6 mph - N/A   Overcast
11:54 AM 46.0°F 35.1°F 66% 30.21 in 8.0 miles ESE 3.5 mph - N/A   Overcast
12:54 PM 46.9°F 36.0°F 66% 30.19 in 8.0 miles Variable 5.8 mph - N/A   Overcast
1:46 PM 46.4°F 35.6°F 66% 30.15 in 8.0 miles ESE 5.8 mph - N/A   Overcast
1:54 PM 46.9°F 35.1°F 63% 30.17 in 8.0 miles SE 6.9 mph - N/A   Overcast
2:09 PM 48.2°F 35.6°F 62% 30.14 in 8.0 miles ESE 6.9 mph - N/A   Overcast
2:46 PM 48.2°F 35.6°F 62% 30.13 in 8.0 miles ESE 9.2 mph - N/A   Overcast
2:54 PM 48.0°F 35.1°F 61% 30.16 in 8.0 miles SE 9.2 mph - N/A   Overcast
3:54 PM 46.9°F 35.1°F 63% 30.16 in 7.0 miles ESE 11.5 mph - N/A   Overcast
4:54 PM 46.0°F 35.1°F 66% 30.16 in 8.0 miles ESE 9.2 mph - N/A   Overcast
5:54 PM 45.0°F 35.1°F 68% 30.18 in 8.0 miles ESE 9.2 mph - N/A   Overcast
6:54 PM 44.1°F 35.1°F 71% 30.18 in 8.0 miles SE 8.1 mph - N/A   Overcast
7:54 PM 44.1°F 35.1°F 71% 30.18 in 7.0 miles ESE 6.9 mph - N/A   Overcast
8:54 PM 44.1°F 35.1°F 71% 30.18 in 7.0 miles SE 8.1 mph - N/A   Overcast
9:54 PM 43.0°F 34.0°F 71% 30.17 in 7.0 miles SE 9.2 mph - N/A   Overcast
10:54 PM 43.0°F 35.1°F 74% 30.16 in 7.0 miles SE 8.1 mph - N/A   Overcast
Astronomy
Sunrise:06:50 AM (CST) Moon Rise:09:32 PM (CST)11/4
Sunset:04:55 PM (CST) Moon Set:11:37 AM (CST)11/4
Moon Phase
Nov. 04 Nov. 06 Nov. 13 Nov. 20 Nov. 28

Copyright © 2015 The Weather Underground, Inc.